Tracking 18984 objects as of 24-Feb-2018
HD Live streaming from Space Station
objects crossing your sky now

COSMOS 2197

Track COSMOS 2197 now!
10-day predictions
COSMOS 2197 is classified as:


NORAD ID: 22034
Int'l Code: 1992-042A
Perigee: 1,403.7 km
Apogee: 1,422.3 km
Inclination: 82.6 °
Period: 113.9 minutes
Semi major axis: 7783 km
RCS: 1.1368 m2 (large)
Launch date: July 13, 1992
Source: Commonwealth of Independent States (former USSR) (CIS)
Launch site: PLESETSK MISSILE AND SPACE COMPLEX (PKMTR)
aabbcc
Your satellite tracking list
Your tracking list is empty




NASA's NSSDC Master Catalog

Two Line Element Set (TLE):
1 22034U 92042A   18054.38475185 +.00000021 +00000-0 +54555-4 0  9998
2 22034 082.5975 008.5949 0011960 345.3896 192.5765 12.64151858181690
Source of the keplerian elements: AFSPC